Natchez, MS

9:36 AM CST on November 12, 2019 (GMT -0600)
Hardy-Anders-Adams County

Weather History for KHEZ - September, 2019

Change the Weather History Date:

Sunday, September 29, 2019

  Actual Average Record
Temperature  
Mean Temperature 80 °F -  
Max Temperature 91 °F 83 °F 95 °F (1953)
Min Temperature 69 °F 60 °F 40 °F (1967)
Cooling Degree Days 15    
Growing Degree Days 30 (Base 50)    
Moisture  
Dew Point 71 °F    
Average Humidity 76    
Maximum Humidity 97    
Minimum Humidity 47    
Precipitation  
Precipitation 0.00 in - - ()
Sea Level Pressure  
Sea Level Pressure 30.10 in    
Wind  
Wind Speed 4 mph (SE)    
Max Wind Speed 10 mph    
Max Gust Speed -    
Visibility 10 miles    
Events      
Averages and records for this station are not official NWS values.
T = Trace of Precipitation, MM = Missing Value Source: NWS Daily Summary

Daily Weather History Graph

Daily Weather History Graph

Search for Another Location

Airport or City:

Astronomy

Sep. 29, 2019 Rise Set
Actual Time 6:57 AM CDT 6:52 PM CDT
Civil Twilight 6:33 AM CDT 7:17 PM CDT
Nautical Twilight 6:05 AM CDT 7:45 PM CDT
Astronomical Twilight 5:36 AM CDT 8:13 PM CDT
Moon 7:48 AM CDT (9/29) 7:56 PM CDT (9/29)
Length of Visible Light 12h 43m
Length of Day
11h 55m
New Moon, 1% of the Moon is Illuminated
Sep 29
New Moon
Oct 5
First Quarter
Oct 13
Full
Oct 21
Last Quarter
Oct 27
New

Hourly Weather History & Observations

Time (CDT) Temp. Heat Index Dew Point Humidity Pressure Visibility Wind Dir Wind Speed Gust Speed Precip Events Conditions
12:56 AM 75.0 °F - 70.0 °F 84% 30.07 in 10.0 mi SSE 6.9 mph - N/A   Clear
1:56 AM 73.0 °F - 69.1 °F 87% 30.07 in 10.0 mi SSE 4.6 mph - N/A   Clear
2:56 AM 72.0 °F - 69.1 °F 91% 30.08 in 10.0 mi Calm Calm - N/A   Clear
3:56 AM 71.1 °F - 69.1 °F 93% 30.08 in 10.0 mi Calm Calm - N/A   Clear
4:56 AM 69.1 °F - 68.0 °F 96% 30.09 in 10.0 mi Calm Calm - N/A   Clear
5:56 AM 71.1 °F - 69.1 °F 93% 30.11 in 10.0 mi Calm Calm - N/A   Clear
6:56 AM 70.0 °F - 69.1 °F 97% 30.13 in 6.0 mi Calm Calm - N/A   Clear
7:56 AM 71.1 °F - 70.0 °F 96% 30.14 in 8.0 mi ENE 3.5 mph - N/A   Partly Cloudy
8:56 AM 78.1 °F - 73.0 °F 84% 30.15 in 10.0 mi ESE 4.6 mph - N/A   Clear
9:56 AM 82.0 °F 87.9 °F 73.9 °F 76% 30.15 in 10.0 mi ESE 6.9 mph - N/A   Partly Cloudy
10:10 AM 82.4 °F 88.2 °F 73.4 °F 74% 30.16 in 10.0 mi SE 9.2 mph - N/A   Mostly Cloudy
11:12 AM 84.2 °F 90.9 °F 73.4 °F 70% 30.15 in 10.0 mi East 8.1 mph - N/A   Scattered Clouds
11:56 AM 86.0 °F 92.2 °F 72.0 °F 63% 30.14 in 10.0 mi ESE 10.4 mph - N/A   Scattered Clouds
12:56 PM 88.0 °F 93.8 °F 71.1 °F 57% 30.12 in 10.0 mi East 9.2 mph - N/A   Mostly Cloudy
1:56 PM 90.0 °F 95.4 °F 70.0 °F 52% 30.09 in 10.0 mi South 5.8 mph - N/A   Scattered Clouds
2:56 PM 91.9 °F 96.9 °F 69.1 °F 47% 30.06 in 10.0 mi SSE 4.6 mph - N/A   Partly Cloudy
3:56 PM 91.9 °F 97.4 °F 70.0 °F 48% 30.04 in 10.0 mi SE 6.9 mph - N/A   Clear
4:56 PM 91.9 °F 96.9 °F 69.1 °F 47% 30.04 in 10.0 mi SE 5.8 mph - N/A   Partly Cloudy
5:56 PM 91.0 °F 95.2 °F 68.0 °F 47% 30.04 in 10.0 mi SE 4.6 mph - N/A   Clear
6:56 PM 82.9 °F 88.0 °F 72.0 °F 69% 30.04 in 10.0 mi Calm Calm - N/A   Partly Cloudy
7:56 PM 81.0 °F 85.8 °F 73.0 °F 77% 30.06 in 10.0 mi South 3.5 mph - N/A   Overcast
8:56 PM 81.0 °F 86.2 °F 73.9 °F 79% 30.08 in 10.0 mi South 4.6 mph - N/A   Clear
9:56 PM 78.1 °F - 73.9 °F 87% 30.10 in 10.0 mi South 4.6 mph - N/A   Clear
10:56 PM 77.0 °F - 73.0 °F 88% 30.11 in 10.0 mi SSE 3.5 mph - N/A   Clear
11:56 PM 75.9 °F - 72.0 °F 87% 30.11 in 10.0 mi South 4.6 mph - N/A   Clear